Presure
156 165 233 163 143 190 190 197 203 189 190 182 182 184 191 191 191 213 221 246 237 241 244 245 198 193 163 174 164 176 165 151 161 160 154 156 159 167 157 166 172 159 173 182 168 158 167
114 185 208 212 89 205 201 189 135 188 191 193 185 183 193 207 217 232 192 174 230 226 235 177 173 183 159 171 154 169 144 170 160 152 169 159 154 162 154 170 173 157 174 177 157 157 159
91 139 213 206 127 91 199 199 198 199 130 183 195 203 213 181 188 179 166 173 183 178 174 155 159 180 160 168 166 158 151 162 157 170 151 154 157 159 165 166 157 174 172 153 161 173 166
176 159 128 102 211 204 196 200 193 195 154 97 115 231 156 195 180 173 173 171 166 171 164 162 166 155 162 168 161 159 161 162 146 138 168 155 134 159 156 163 160 154 154 163 161 148 164
171 167 156 126 184 209 159 136 194 136 168 199 197 160 185 175 173 160 158 154 164 165 167 182 154 160 161 162 163 156 153 151 145 159 161 155 164 169 157 153 155 159 158 158 161 151 152
167 162 169 169 173 127 165 127 198 140 160 205 190 184 177 94 167 168 157 159 159 163 153 168 161 165 152 154 152 152 144 158 154 160 159 161 151 154 152 155 157 136 153 164 159 151 153
148 181 163 158 169 180 179 137 212 157 207 163 174 170 166 173 166 160 160 163 164 160 161 166 166 155 152 160 153 150 154 155 159 152 149 173 157 153 168 168 167 169 151 167 160 156 144
169 173 178 161 168 107 174 166 220 194 181 173 120 120 125 162 153 157 157 168 175 152 164 161 162 152 154 150 155 154 153 162 158 153 154 159 156 171 154 172 160 140 162 162 161 149 152
156 175 187 160 156 143 165 162 161 145 123 155 149 161 166 163 159 162 180 160 152 168 167 151 158 159 156 156 155 162 164 139 147 160 146 158 150 149 150 159 157 159 167 161 171 148 156
179 144 152 158 158 155 151 171 128 131 155 138 160 157 168 174 130 152 145 145 159 140 164 158 159 157 151 154 163 155 155 152 145 155 153 154 149 148 161 155 173 152 160 163 178 172 174
182 154 168 178 169 156 168 149 159 170 155 175 160 148 151 157 119 151 122 172 178 167 168 144 164 161 161 175 153 158 152 147 157 152 158 163 154 160 170 157 144 156 160 166 153 178 180
132 183 153 176 171 165 156 158 153 155 109 126 168 168 154 147 165 167 161 151 167 156 169 151 163 163 165 156 146 161 152 150 167 167 154 155 153 169 166 163 156 164 160 150 176 163 148
174 182 142 160 171 156 172 159 161 153 158 158 146 162 160 160 158 136 138 161 137 147 153 166 150 167 173 167 164 160 164 170 174 165 160 152 159 148 163 154 155 166 169 153 161 173 152
172 176 168 178 162 151 151 163 161 157 154 154 155 148 155 154 139 160 173 157 129 154 147 155 143 163 166 165 137 158 152 136 138 149 147 153 155 166 151 159 151 155 156 175 164 176 153
178 186 182 173 177 147 173 164 170 156 156 155 155 151 154 156 122 136 161 161 139 128 139 157 147 149 130 158 158 151 157 137 149 156 156 157 154 150 160 146 156 157 169 168 165 151 150
165 188 199 174 182 159 159 171 165 170 158 149 156 151 152 154 138 128 150 154 148 155 152 143 153 146 152 150 154 151 150 156 149 153 135 150 155 162 162 138 144 154 151 145 153 160 149
177 173 188 200 174 148 164 149 170 169 161 154 159 155 158 153 148 138 151 148 153 154 156 160 151 158 150 159 154 156 148 174 138 158 157 158 141 159 153 142 148 148 146 147 150 172 149
176 179 179 188 176 184 138 164 148 173 154 159 173 164 160 157 159 153 155 150 152 151 154 155 158 160 123 157 163 160 154 156 162 162 162 162 163 130 150 146 143 141 158 146 160 165 170
182 175 180 176 177 168 170 181 142 146 166 150 156 175 168 167 160 158 154 159 158 159 160 129 153 129 141 151 145 162 130 134 150 164 131 151 167 169 165 169 174 141 159 160 150 158 187
200 188 183 182 180 171 174 173 153 139 160 172 154 154 170 164 172 151 158 162 162 155 161 162 164 163 164 157 158 142 162 125 161 152 133 144 156 171 180 176 161 147 145 159 165 184 183
216 195 173 188 167 181 156 171 181 177 172 152 179 171 162 155 172 168 171 153 164 168 147 152 157 157 166 171 167 174 143 151 173 159 140 175 168 163 174 170 189 166 162 165 179 180 184
216 213 187 186 160 177 183 170 162 185 171 172 165 150 170 175 169 154 150 171 145 160 163 143 176 109 158 164 172 159 165 173 160 166 168 178 172 161 144 169 164 174 172 177 175 160 169
228 223 203 185 178 184 179 185 156 174 192 173 186 181 173 160 174 153 153 152 154 154 166 157 157 167 174 164 178 165 176 164 180 179 177 179 175 159 161 172 176 170 170 165 178 180 179
242 226 215 201 183 178 177 180 165 181 169 179 185 182 186 168 187 164 159 146 160 175 167 175 161 166 155 163 172 171 146 169 176 181 170 182 184 185 172 168 171 166 181 160 182 180 177
286 228 230 200 200 183 182 181 184 180 170 176 187 162 169 187 168 180 145 161 155 178 141 158 176 181 170 141 177 161 158 177 158 193 184 177 167 174 173 164 183 161 153 171 189 186 177
293 232 233 209 202 197 183 184 171 171 182 187 181 176 181 194 159 168 166 172 178 158 173 192 155 171 178 183 145 172 177 185 147 185 195 142 161 196 179 170 187 190 177 194 198 190 181
291 246 241 221 224 203 196 169 179 187 188 184 178 177 183 181 185 182 157 162 151 166 175 192 176 188 180 155 166 170 175 186 142 146 165 188 171 184 191 168 167 186 195 194 184 194 195
359 265 250 239 238 215 200 188 189 183 177 170 179 190 182 198 189 197 171 197 194 164 191 182 170 186 175 183 185 195 188 164 172 176 166 184 167 154 191 196 198 179 192 191 196 198 159
378 371 240 251 231 240 210 200 193 191 187 179 186 181 185 198 194 170 191 181 175 179 198 196 184 187 187 182 183 172 156 184 175 197 151 181 186 167 189 184 188 178 188 196 194 153 198
Wind_Speed
31 23 35 31 26 38 40 43 44 37 39 37 35 35 34 33 30 32 29 25 19 13 14 22 18 13 16 12 16 9 16 22 19 18 19 20 23 25 21 26 23 20 22 20 12 15 20
31 25 27 29 21 33 35 34 28 35 36 33 32 30 33 32 30 25 17 22 16 16 24 17 15 15 19 14 19 14 24 15 20 21 13 24 24 27 23 23 22 25 24 21 23 23 24
26 35 22 26 29 24 31 29 30 32 23 29 32 31 31 20 17 17 22 15 14 15 16 25 21 14 18 15 16 20 24 19 20 13 25 28 25 30 28 27 26 22 24 25 33 29 33
22 33 37 37 27 30 30 29 29 28 27 18 19 27 27 18 18 19 16 17 20 17 24 20 15 23 18 15 19 23 23 21 24 25 16 30 23 31 32 33 33 32 30 37 36 25 36
27 29 30 37 25 28 31 28 29 27 26 24 21 26 19 20 20 24 18 27 21 19 14 18 24 21 20 17 18 23 26 29 26 25 23 33 31 24 35 33 34 39 37 32 36 36 36
27 31 31 27 31 30 34 31 32 27 26 24 23 21 23 19 24 21 29 26 24 21 27 18 22 20 27 26 27 29 32 28 33 28 32 33 33 37 36 40 39 23 39 42 44 36 40
40 30 31 35 27 28 27 35 28 26 25 28 22 24 26 21 24 25 24 23 23 26 26 24 24 29 31 26 32 32 33 36 36 36 35 32 40 37 37 37 39 38 38 37 45 45 33
31 29 36 33 34 29 31 33 26 27 25 26 27 34 34 29 31 27 27 26 26 31 27 29 29 34 34 34 35 34 36 37 39 37 41 40 40 44 42 44 47 30 38 46 49 47 51
39 35 32 38 37 43 31 34 32 33 42 32 29 30 28 28 29 23 28 28 30 31 32 35 34 35 38 39 38 37 39 36 39 45 39 46 42 44 45 42 46 51 53 46 45 44 55
46 48 44 40 41 39 42 36 42 33 37 41 35 37 30 31 35 32 33 34 35 30 36 36 37 37 37 38 41 39 41 42 41 46 48 50 48 48 52 54 47 54 58 51 49 51 53
55 49 45 39 41 45 42 47 39 40 42 34 39 36 36 33 38 35 37 34 35 38 39 38 39 40 42 47 40 43 42 42 48 45 52 53 54 51 47 48 47 57 57 55 50 54 54
63 56 53 43 42 44 50 48 50 46 39 46 40 40 40 43 37 37 37 39 38 40 39 39 40 42 45 43 38 47 45 47 54 48 50 50 52 50 51 52 54 56 55 53 59 57 53
58 58 60 49 51 51 47 54 52 52 48 46 46 44 44 42 42 41 38 41 39 43 43 42 41 44 44 47 49 49 52 51 50 49 48 53 53 52 56 54 55 60 63 57 59 64 62
61 63 53 64 54 59 57 53 58 59 55 52 52 55 50 49 49 47 44 46 39 46 47 46 47 47 50 48 36 48 45 37 40 50 51 54 59 61 56 60 58 62 63 70 63 65 65
82 88 74 65 60 68 61 56 58 63 61 59 58 57 57 55 53 48 52 50 50 42 49 52 53 55 39 54 53 50 53 43 51 58 59 59 60 63 66 57 63 67 72 71 69 64 63
81 99 95 62 64 68 65 65 63 63 66 63 64 64 62 62 58 52 58 58 57 57 60 57 60 53 59 56 56 56 59 60 57 60 43 58 60 68 67 56 61 68 65 66 73 74 72
103 87 93 87 68 69 72 72 67 66 70 71 71 69 70 68 64 63 64 61 64 65 65 66 65 66 61 65 61 64 64 66 48 67 68 67 53 68 67 60 65 69 68 72 78 87 76
105 108 97 106 85 83 79 73 74 70 73 74 75 76 77 73 72 69 70 69 69 67 70 70 71 70 50 68 68 67 70 71 70 72 73 74 74 53 68 62 65 66 79 77 89 88 91
112 108 107 99 103 79 80 85 74 80 78 78 78 80 81 81 76 73 73 75 75 74 75 65 71 60 56 69 61 72 55 49 65 76 51 72 79 82 80 82 83 69 82 87 84 90 93
121 120 119 113 108 90 97 89 83 74 85 85 75 79 82 81 79 71 73 79 80 75 80 79 79 77 78 74 71 66 79 55 73 70 56 67 80 85 85 84 82 76 80 91 95 93 88
122 125 107 118 96 112 89 93 98 95 92 85 86 85 82 77 87 81 88 74 82 86 67 72 72 74 76 79 73 77 70 77 78 82 67 87 86 84 86 82 90 82 87 96 96 94 94
122 131 124 124 92 116 116 98 90 106 94 93 88 84 93 85 83 77 78 87 73 81 84 66 90 50 76 75 82 71 76 78 76 78 80 85 83 81 76 87 83 84 91 89 92 103 94
122 128 135 123 114 123 115 114 91 101 109 97 100 98 95 85 89 80 81 80 79 80 88 80 79 88 97 86 92 81 91 80 89 90 90 82 83 82 81 85 85 82 83 91 94 94 98
126 128 132 135 124 114 114 108 93 110 93 108 106 104 103 88 92 88 79 79 80 98 92 98 90 94 83 86 95 89 74 87 87 89 77 94 96 96 81 79 82 79 87 95 93 92 93
119 131 133 137 139 125 123 122 124 120 100 106 115 96 93 102 91 99 74 94 89 103 75 88 97 100 95 68 98 85 81 92 82 102 98 90 88 92 88 87 84 85 89 85 101 97 91
118 135 134 138 141 139 123 128 105 104 122 118 119 111 114 111 94 96 95 94 101 92 99 107 89 93 100 104 83 93 99 104 79 92 104 71 86 98 94 88 87 102 87 115 120 107 100
117 133 133 141 143 140 138 98 118 132 132 124 117 118 119 109 107 104 93 94 82 96 102 110 102 107 103 89 91 92 95 104 71 69 92 87 91 87 100 94 90 103 120 119 100 120 118
87 123 131 138 137 144 145 127 133 129 114 97 118 127 118 122 117 115 103 114 107 93 114 103 95 101 99 103 106 112 96 90 89 84 92 92 92 93 115 120 121 107 117 117 123 125 84
64 73 132 132 143 140 148 144 136 136 136 112 132 116 126 126 124 96 124 114 101 105 118 118 103 109 103 95 100 88 92 96 103 112 84 95 105 96 116 103 112 95 113 127 122 78 127
Wind_Direction
257 253 245 259 247 244 246 251 247 251 251 259 257 260 266 266 270 274 274 275 268 250 209 177 204 213 281 280 292 292 306 297 315 322 313 324 335 341 333 339 343 336 344 345 332 329 340
261 264 262 253 248 251 250 251 269 250 254 255 258 264 268 269 278 276 249 259 240 212 179 238 243 226 280 282 287 303 289 310 311 306 326 324 323 330 323 329 332 332 334 336 334 333 333
274 261 271 266 269 263 250 250 248 247 262 256 263 268 269 249 247 243 259 250 228 230 234 265 265 222 274 270 284 288 296 304 306 316 309 315 321 327 327 327 328 320 322 330 332 321 327
262 253 259 269 264 258 252 244 243 247 261 268 277 269 258 228 229 234 235 236 243 239 251 264 252 277 281 269 283 291 299 304 303 303 305 311 299 319 326 320 322 328 325 324 323 319 325
265 253 255 268 276 264 261 260 248 258 259 244 237 253 220 234 227 252 238 258 253 260 254 199 275 272 275 275 278 291 298 300 300 297 297 309 301 297 317 321 317 321 321 319 320 321 321
263 262 260 261 266 274 253 257 247 256 245 240 226 215 224 270 240 236 254 259 263 262 269 242 257 248 279 280 284 288 301 289 298 291 296 300 314 313 315 313 310 295 319 309 313 313 319
249 280 266 262 264 267 257 255 243 243 228 247 228 233 239 227 237 248 257 259 255 263 260 238 240 266 275 262 277 290 288 288 286 299 301 264 303 308 285 289 295 291 317 298 304 314 311
258 279 276 265 267 270 258 250 239 233 230 234 254 274 271 245 256 255 259 248 220 267 246 251 250 273 272 284 278 281 288 277 288 289 293 291 301 277 306 280 302 302 295 297 297 314 313
243 268 274 258 258 242 261 258 245 246 250 244 251 244 241 245 250 237 223 245 264 238 239 269 258 254 268 272 278 271 268 292 295 288 298 295 303 306 306 292 297 300 293 299 296 306 304
274 251 245 253 256 256 248 258 247 265 244 257 244 246 251 248 267 253 256 263 258 255 244 254 251 260 274 279 267 279 280 286 291 290 298 295 299 300 288 296 291 304 298 298 304 299 300
270 247 251 259 256 252 260 244 254 250 247 251 249 251 252 253 283 254 267 238 233 245 244 272 252 258 260 251 277 273 280 289 285 295 291 284 287 289 291 296 307 299 299 300 307 305 305
255 264 241 257 254 251 250 255 255 253 263 245 248 249 252 255 252 248 252 254 249 255 245 264 255 258 259 268 280 267 280 284 280 283 286 286 291 290 292 295 298 300 300 306 305 305 305
264 261 250 247 252 243 254 251 252 253 254 254 246 247 249 250 253 259 253 254 267 266 263 257 268 261 262 262 264 266 270 275 281 283 283 285 289 294 296 298 300 302 301 302 305 302 307
262 262 244 256 242 240 247 246 249 249 249 251 254 252 251 256 263 251 247 256 255 261 268 265 276 265 264 266 282 277 281 286 290 287 290 293 295 295 297 299 301 301 304 299 301 301 302
265 263 259 249 245 238 249 241 243 244 247 247 249 250 256 257 256 254 248 250 265 258 274 262 272 274 271 272 277 283 279 287 289 287 289 290 294 297 296 301 299 301 300 301 302 306 305
264 260 260 241 246 234 237 245 240 240 244 248 246 248 249 253 252 264 259 258 264 263 269 271 270 274 279 281 279 282 283 282 287 287 290 292 292 291 293 299 301 300 302 305 303 305 304
254 257 256 254 242 249 241 238 243 239 241 244 246 247 250 249 251 260 259 261 263 264 264 262 272 268 276 275 279 278 282 278 285 284 287 289 288 289 291 297 299 302 303 305 304 307 301
247 251 254 254 250 243 251 238 241 246 240 241 247 248 248 249 253 253 256 258 260 262 265 266 269 271 265 275 274 277 280 282 282 284 286 288 290 285 294 294 298 300 299 303 304 306 308
239 247 246 249 249 238 240 240 252 244 243 247 242 246 248 250 251 252 255 258 260 263 265 268 268 271 270 275 278 276 271 280 285 283 285 289 290 291 293 295 297 298 300 301 300 303 309
227 237 241 243 248 244 246 244 242 256 243 246 252 245 246 250 252 252 255 258 261 263 266 266 267 268 270 273 274 275 280 273 282 280 280 290 293 295 296 295 294 297 299 299 299 306 308
226 229 242 238 247 247 236 241 247 246 243 246 247 247 245 249 251 251 253 258 260 262 263 265 267 269 274 277 276 279 274 277 283 283 285 289 292 294 297 297 300 300 299 300 304 306 312
224 224 231 232 251 241 244 244 236 251 243 246 244 249 247 248 247 260 253 256 267 260 264 268 270 281 269 274 278 275 277 280 279 288 291 293 291 289 292 295 296 303 301 302 300 296 303
221 222 225 232 236 235 241 242 245 249 251 245 243 245 245 245 247 255 257 257 256 264 264 264 267 272 273 274 278 277 279 281 287 285 291 292 290 284 288 294 298 299 295 295 305 308 307
221 220 224 225 232 237 237 240 248 244 245 251 250 248 249 245 250 250 257 260 262 260 261 265 268 269 271 274 275 276 275 281 284 285 287 289 293 292 291 290 292 289 296 287 303 302 299
221 221 219 226 225 232 235 238 239 242 246 249 250 247 250 252 245 249 262 253 258 259 266 263 264 267 270 276 274 275 276 284 278 287 289 286 285 286 289 282 297 286 294 289 307 306 297
219 222 219 224 226 228 234 234 245 245 244 243 248 252 253 253 246 247 248 253 254 261 263 262 264 268 269 269 277 277 279 278 280 288 288 290 278 300 279 282 305 308 289 309 310 310 302
220 220 220 223 221 227 230 237 239 238 242 244 247 252 252 254 254 254 250 250 261 257 262 260 267 265 270 271 274 276 279 281 286 284 288 288 275 294 301 281 280 304 308 308 303 308 309
226 221 222 222 221 225 228 234 233 238 245 250 249 246 251 248 254 253 259 258 259 259 262 266 268 267 268 273 277 280 281 271 286 277 290 291 284 288 302 304 307 299 306 306 307 308 304
227 228 225 223 224 223 226 230 234 235 241 247 244 250 250 248 251 255 256 261 263 265 264 266 271 273 275 274 277 271 277 288 287 292 285 291 297 288 300 300 301 296 301 305 306 304 307